FHV2 KDCA-KILM

Flight info

Callsign FHV2
Flight time 0h 57m
Altitude 34000
Route AMEEE1 SCOOB PAACK CHVIS BEULA
Aircraft B737/M-SDE2E3FGHIRWXY/LB1

Departure

Time 2026-04-20 15:01
Airport Ronald Reagan Washington National Airport (KDCA)

Arrival

Time 2026-04-20 15:59
Airport Wilmington International Airport (KILM)
Time Latitude Longitude Altitude Speed Heading
2026-04-20 14:40 38.85557 -77.04274 23 ft 0 kts 338°
2026-04-20 14:54 38.85549 -77.04270 25 ft 3 kts 340°
2026-04-20 14:54 38.85530 -77.04263 23 ft 3 kts 351°
2026-04-20 14:55 38.85510 -77.04261 24 ft 3 kts 11°
2026-04-20 14:55 38.85494 -77.04270 24 ft 3 kts 57°
2026-04-20 14:55 38.85490 -77.04281 28 ft 1 kts 72°
2026-04-20 14:55 38.85489 -77.04283 27 ft 0 kts 72°
2026-04-20 14:57 38.85490 -77.04280 28 ft 2 kts 72°
2026-04-20 14:58 38.85505 -77.04220 21 ft 12 kts 72°
2026-04-20 14:58 38.85538 -77.04078 23 ft 18 kts 86°
2026-04-20 14:58 38.85433 -77.04004 25 ft 20 kts 175°
2026-04-20 14:58 38.85299 -77.03990 24 ft 19 kts 175°
2026-04-20 14:59 38.85170 -77.03978 24 ft 19 kts 176°
2026-04-20 14:59 38.85029 -77.03964 24 ft 22 kts 175°
2026-04-20 14:59 38.84873 -77.03949 24 ft 23 kts 176°
2026-04-20 14:59 38.84729 -77.03891 23 ft 22 kts 139°
2026-04-20 15:00 38.84582 -77.03858 25 ft 22 kts 176°
2026-04-20 15:00 38.84434 -77.03845 24 ft 21 kts 175°
2026-04-20 15:00 38.84291 -77.03829 24 ft 20 kts 174°
2026-04-20 15:00 38.84199 -77.03723 24 ft 17 kts 88°
2026-04-20 15:01 38.84354 -77.03696 23 ft 50 kts 355°
2026-04-20 15:01 38.84958 -77.03755 25 ft 121 kts 356°
2026-04-20 15:01 38.85987 -77.03850 128 ft 167 kts 352°
2026-04-20 15:01 38.87097 -77.04067 1104 ft 149 kts 333°
2026-04-20 15:02 38.87737 -77.04905 2237 ft 126 kts 309°
2026-04-20 15:02 38.88475 -77.05646 2757 ft 149 kts 324°
2026-04-20 15:02 38.89384 -77.06540 3102 ft 183 kts 324°
2026-04-20 15:02 38.90384 -77.07663 3588 ft 200 kts 302°
2026-04-20 15:03 38.91054 -77.09313 4160 ft 221 kts 297°
2026-04-20 15:03 38.91933 -77.11017 4785 ft 238 kts 318°
2026-04-20 15:03 38.93311 -77.12235 5798 ft 242 kts 324°
2026-04-20 15:03 38.94738 -77.13426 6693 ft 249 kts 325°
2026-04-20 15:04 38.96257 -77.14500 7701 ft 252 kts 332°
2026-04-20 15:04 38.98028 -77.14935 8498 ft 270 kts 358°
2026-04-20 15:04 38.99892 -77.14278 9289 ft 289 kts 24°
2026-04-20 15:04 39.01567 -77.12775 10232 ft 298 kts 33°
2026-04-20 15:05 39.03132 -77.10967 11043 ft 309 kts 51°
2026-04-20 15:05 39.03970 -77.08393 11797 ft 324 kts 79°
2026-04-20 15:05 39.03963 -77.05394 12081 ft 349 kts 96°
2026-04-20 15:05 39.03657 -77.02164 12363 ft 374 kts 97°
2026-04-20 15:06 39.03135 -76.98843 12947 ft 384 kts 112°
2026-04-20 15:06 39.01762 -76.95910 13794 ft 384 kts 135°
2026-04-20 15:06 38.99716 -76.93741 14521 ft 381 kts 155°
2026-04-20 15:06 38.97269 -76.92502 15251 ft 378 kts 169°
2026-04-20 15:07 38.94728 -76.91536 16022 ft 382 kts 171°
2026-04-20 15:07 38.92151 -76.90603 16788 ft 387 kts 172°
2026-04-20 15:07 38.89544 -76.89663 17589 ft 392 kts 173°
2026-04-20 15:07 38.86935 -76.88711 18298 ft 398 kts 173°
2026-04-20 15:08 38.84253 -76.87720 18967 ft 403 kts 173°
2026-04-20 15:08 38.81545 -76.86706 19626 ft 408 kts 173°
2026-04-20 15:08 38.78814 -76.85676 20288 ft 412 kts 173°
2026-04-20 15:08 38.76048 -76.84630 20942 ft 416 kts 174°
2026-04-20 15:09 38.73255 -76.83573 21593 ft 420 kts 174°
2026-04-20 15:09 38.70437 -76.82507 22225 ft 424 kts 174°
2026-04-20 15:09 38.67593 -76.81433 22832 ft 428 kts 175°
2026-04-20 15:09 38.64715 -76.80348 23450 ft 432 kts 175°
2026-04-20 15:10 38.61818 -76.79255 24037 ft 435 kts 175°
2026-04-20 15:10 38.58911 -76.78157 24618 ft 436 kts 175°
2026-04-20 15:10 38.56001 -76.77057 25237 ft 436 kts 175°
2026-04-20 15:10 38.53091 -76.75960 25819 ft 437 kts 175°
2026-04-20 15:11 38.50172 -76.74862 26345 ft 438 kts 175°
2026-04-20 15:11 38.47240 -76.73762 26873 ft 440 kts 175°
2026-04-20 15:11 38.44299 -76.72659 27374 ft 442 kts 175°
2026-04-20 15:11 38.41339 -76.71555 27869 ft 442 kts 176°
2026-04-20 15:12 38.38365 -76.70750 28330 ft 433 kts 184°
2026-04-20 15:12 38.35391 -76.70268 28785 ft 431 kts 185°
2026-04-20 15:12 38.32402 -76.69870 29205 ft 433 kts 186°
2026-04-20 15:12 38.29433 -76.69474 29614 ft 436 kts 186°
2026-04-20 15:13 38.26409 -76.69041 30024 ft 439 kts 185°
2026-04-20 15:13 38.23378 -76.68574 30496 ft 439 kts 185°
2026-04-20 15:13 38.20344 -76.68089 30841 ft 440 kts 184°
2026-04-20 15:13 38.17285 -76.67595 31032 ft 446 kts 184°
2026-04-20 15:14 38.14191 -76.67095 31301 ft 449 kts 183°
2026-04-20 15:14 38.11089 -76.66594 31628 ft 450 kts 183°
2026-04-20 15:14 38.07971 -76.66165 31905 ft 449 kts 185°
2026-04-20 15:14 38.04846 -76.65911 32138 ft 451 kts 187°
2026-04-20 15:15 38.01710 -76.65736 32421 ft 452 kts 187°
2026-04-20 15:15 37.98564 -76.65574 32755 ft 454 kts 187°
2026-04-20 15:15 37.95395 -76.65401 33042 ft 456 kts 186°
2026-04-20 15:15 37.92216 -76.65212 33308 ft 459 kts 186°
2026-04-20 15:16 37.89023 -76.65009 33603 ft 461 kts 185°
2026-04-20 15:16 37.85807 -76.64794 33949 ft 462 kts 185°
2026-04-20 15:16 37.82643 -76.64577 34238 ft 463 kts 185°
2026-04-20 15:17 37.76154 -76.64134 34240 ft 468 kts 185°
2026-04-20 15:17 37.69680 -76.63695 34228 ft 461 kts 185°
2026-04-20 15:18 37.63293 -76.63272 34243 ft 459 kts 185°
2026-04-20 15:18 37.57042 -76.63636 34252 ft 437 kts 204°
2026-04-20 15:19 37.51264 -76.65905 34250 ft 434 kts 205°
2026-04-20 15:19 37.45547 -76.68210 34241 ft 434 kts 205°
2026-04-20 15:20 37.39784 -76.70478 34237 ft 433 kts 205°
2026-04-20 15:20 37.34024 -76.72700 34226 ft 433 kts 205°
2026-04-20 15:21 37.28261 -76.74909 34234 ft 432 kts 205°
2026-04-20 15:21 37.22507 -76.77111 34234 ft 432 kts 205°
2026-04-20 15:22 37.16762 -76.79308 34236 ft 431 kts 205°
2026-04-20 15:22 37.11029 -76.81497 34230 ft 430 kts 205°
2026-04-20 15:23 37.05305 -76.83679 34238 ft 429 kts 205°
2026-04-20 15:23 36.99644 -76.85834 34239 ft 428 kts 205°
2026-04-20 15:24 36.93958 -76.87996 34239 ft 426 kts 205°
2026-04-20 15:24 36.88289 -76.90148 34237 ft 425 kts 205°
2026-04-20 15:25 36.82633 -76.92291 34239 ft 424 kts 205°
2026-04-20 15:25 36.76980 -76.94430 34246 ft 424 kts 205°
2026-04-20 15:26 36.71339 -76.96562 34251 ft 423 kts 205°
2026-04-20 15:26 36.65701 -76.98689 34241 ft 423 kts 205°
2026-04-20 15:27 36.60065 -77.00814 34244 ft 423 kts 205°
2026-04-20 15:27 36.54462 -77.02920 34242 ft 423 kts 205°
2026-04-20 15:28 36.48816 -77.05039 34253 ft 423 kts 205°
2026-04-20 15:28 36.43171 -77.07155 34263 ft 424 kts 205°
2026-04-20 15:29 36.38474 -77.08914 34261 ft 424 kts 205°
2026-04-20 15:29 36.32817 -77.11030 34260 ft 425 kts 205°
2026-04-20 15:30 36.27151 -77.13144 34264 ft 425 kts 206°
2026-04-20 15:30 36.21484 -77.15255 34267 ft 425 kts 206°
2026-04-20 15:31 36.15825 -77.17360 34265 ft 425 kts 206°
2026-04-20 15:31 36.10204 -77.19449 34261 ft 424 kts 206°
2026-04-20 15:32 36.04550 -77.21548 34270 ft 423 kts 206°
2026-04-20 15:32 35.98909 -77.23639 34274 ft 423 kts 206°
2026-04-20 15:33 35.93276 -77.25719 34284 ft 422 kts 205°
2026-04-20 15:33 35.87498 -77.27336 34276 ft 426 kts 201°
2026-04-20 15:34 35.81685 -77.28768 34277 ft 425 kts 201°
2026-04-20 15:34 35.75898 -77.30209 34270 ft 423 kts 202°
2026-04-20 15:35 35.70134 -77.31665 34271 ft 422 kts 202°
2026-04-20 15:35 35.64396 -77.33121 34269 ft 421 kts 202°
2026-04-20 15:36 35.58696 -77.34567 34276 ft 419 kts 202°
2026-04-20 15:36 35.52981 -77.36015 34269 ft 418 kts 202°
2026-04-20 15:37 35.47273 -77.37457 34270 ft 418 kts 203°
2026-04-20 15:37 35.41581 -77.38895 34085 ft 420 kts 203°
2026-04-20 15:37 35.38712 -77.39649 33438 ft 418 kts 205°
2026-04-20 15:38 35.35986 -77.40732 32688 ft 406 kts 212°
2026-04-20 15:38 35.33484 -77.42256 31838 ft 399 kts 218°
2026-04-20 15:38 35.31078 -77.43930 31266 ft 394 kts 218°
2026-04-20 15:38 35.28704 -77.45574 30690 ft 391 kts 218°
2026-04-20 15:39 35.26370 -77.47182 30104 ft 387 kts 218°
2026-04-20 15:39 35.24034 -77.48783 29459 ft 382 kts 218°
2026-04-20 15:39 35.21728 -77.50356 28893 ft 376 kts 218°
2026-04-20 15:39 35.19453 -77.51904 28328 ft 371 kts 218°
2026-04-20 15:40 35.17203 -77.53433 27772 ft 367 kts 218°
2026-04-20 15:40 35.15005 -77.54928 27205 ft 364 kts 217°
2026-04-20 15:40 35.12804 -77.56423 26663 ft 360 kts 217°
2026-04-20 15:40 35.10626 -77.57901 26113 ft 357 kts 217°
2026-04-20 15:41 35.08466 -77.59367 25572 ft 354 kts 217°
2026-04-20 15:41 35.06311 -77.60829 25043 ft 352 kts 217°
2026-04-20 15:41 35.04178 -77.62275 24507 ft 350 kts 216°
2026-04-20 15:41 35.02049 -77.63718 23975 ft 348 kts 216°
2026-04-20 15:42 34.99933 -77.65151 23341 ft 347 kts 216°
2026-04-20 15:42 34.97829 -77.66573 22769 ft 345 kts 216°
2026-04-20 15:42 34.95740 -77.67983 22230 ft 342 kts 216°
2026-04-20 15:42 34.93667 -77.69382 21688 ft 339 kts 216°
2026-04-20 15:43 34.91591 -77.70797 20860 ft 345 kts 217°
2026-04-20 15:43 34.89534 -77.72209 20280 ft 343 kts 217°
2026-04-20 15:43 34.87455 -77.73638 19741 ft 341 kts 217°
2026-04-20 15:43 34.85392 -77.75054 19221 ft 339 kts 217°
2026-04-20 15:44 34.83342 -77.76459 18695 ft 337 kts 217°
2026-04-20 15:44 34.81302 -77.77858 18114 ft 335 kts 217°
2026-04-20 15:44 34.79277 -77.79245 17563 ft 333 kts 217°
2026-04-20 15:44 34.77269 -77.80619 17059 ft 329 kts 217°
2026-04-20 15:45 34.75283 -77.81977 16534 ft 326 kts 217°
2026-04-20 15:45 34.73307 -77.83329 15881 ft 327 kts 217°
2026-04-20 15:45 34.71318 -77.84692 15258 ft 328 kts 217°
2026-04-20 15:45 34.69332 -77.86050 14710 ft 328 kts 217°
2026-04-20 15:46 34.67349 -77.87406 14189 ft 325 kts 217°
2026-04-20 15:46 34.65409 -77.88730 13628 ft 323 kts 216°
2026-04-20 15:46 34.63451 -77.90064 13073 ft 321 kts 216°
2026-04-20 15:46 34.61505 -77.91390 12546 ft 320 kts 216°
2026-04-20 15:47 34.59569 -77.92708 12021 ft 319 kts 215°
2026-04-20 15:47 34.57639 -77.94022 11508 ft 318 kts 215°
2026-04-20 15:47 34.55709 -77.95337 10978 ft 317 kts 214°
2026-04-20 15:47 34.53781 -77.96648 10552 ft 314 kts 214°
2026-04-20 15:48 34.51908 -77.97916 10350 ft 303 kts 214°
2026-04-20 15:48 34.50103 -77.99139 10222 ft 292 kts 213°
2026-04-20 15:48 34.48360 -78.00307 10068 ft 282 kts 214°
2026-04-20 15:48 34.46681 -78.01448 9880 ft 273 kts 214°
2026-04-20 15:49 34.45029 -78.02575 9527 ft 272 kts 214°
2026-04-20 15:49 34.43382 -78.03699 9169 ft 271 kts 214°
2026-04-20 15:49 34.41739 -78.04816 8838 ft 271 kts 214°
2026-04-20 15:49 34.40122 -78.05914 8250 ft 273 kts 214°
2026-04-20 15:50 34.38441 -78.07056 7633 ft 277 kts 214°
2026-04-20 15:50 34.36760 -78.08196 7079 ft 277 kts 213°
2026-04-20 15:50 34.35070 -78.09341 6491 ft 279 kts 213°
2026-04-20 15:50 34.33382 -78.10482 6028 ft 275 kts 212°
2026-04-20 15:51 34.31725 -78.11600 5574 ft 271 kts 212°
2026-04-20 15:51 34.30091 -78.12705 5135 ft 267 kts 211°
2026-04-20 15:51 34.28474 -78.13773 4746 ft 263 kts 206°
2026-04-20 15:51 34.26867 -78.14783 4337 ft 258 kts 211°
2026-04-20 15:52 34.25316 -78.15864 3963 ft 259 kts 212°
2026-04-20 15:52 34.23767 -78.16937 3661 ft 254 kts 210°
2026-04-20 15:52 34.22104 -78.17555 3282 ft 258 kts 180°
2026-04-20 15:53 34.18962 -78.15939 3064 ft 245 kts 139°
2026-04-20 15:53 34.17734 -78.14592 3065 ft 233 kts 137°
2026-04-20 15:53 34.16575 -78.13304 3096 ft 223 kts 137°
2026-04-20 15:53 34.15416 -78.12027 3093 ft 228 kts 137°
2026-04-20 15:54 34.14334 -78.10640 3068 ft 228 kts 118°
2026-04-20 15:54 34.14091 -78.08874 3138 ft 208 kts 76°
2026-04-20 15:54 34.14704 -78.07363 3130 ft 194 kts 58°
2026-04-20 15:54 34.15418 -78.05973 3060 ft 192 kts 54°
2026-04-20 15:55 34.16214 -78.04687 2974 ft 194 kts 50°
2026-04-20 15:55 34.17074 -78.03456 2784 ft 191 kts 49°
2026-04-20 15:55 34.17946 -78.02259 2512 ft 185 kts 48°
2026-04-20 15:55 34.18763 -78.01143 2255 ft 175 kts 47°
2026-04-20 15:56 34.19554 -78.00067 1997 ft 165 kts 48°
2026-04-20 15:56 34.20275 -77.99089 1827 ft 148 kts 48°
2026-04-20 15:56 34.20942 -77.98180 1624 ft 144 kts 49°
2026-04-20 15:56 34.21603 -77.97276 1428 ft 143 kts 48°
2026-04-20 15:57 34.22265 -77.96374 1229 ft 144 kts 48°
2026-04-20 15:57 34.22922 -77.95480 1026 ft 141 kts 48°
2026-04-20 15:57 34.23570 -77.94596 851 ft 140 kts 48°
2026-04-20 15:57 34.24227 -77.93700 649 ft 143 kts 47°
2026-04-20 15:58 34.24880 -77.92814 432 ft 139 kts 47°
2026-04-20 15:58 34.25517 -77.91938 278 ft 138 kts 46°
2026-04-20 15:58 34.26161 -77.91067 86 ft 139 kts 46°
2026-04-20 15:58 34.26774 -77.90245 27 ft 120 kts 51°
2026-04-20 15:59 34.27228 -77.89625 31 ft 76 kts 48°
2026-04-20 15:59 34.27483 -77.89283 25 ft 33 kts 49°
2026-04-20 15:59 34.27606 -77.89117 25 ft 25 kts 44°
2026-04-20 15:59 34.27745 -77.89210 27 ft 28 kts 278°
2026-04-20 16:00 34.27647 -77.89399 27 ft 26 kts 228°
2026-04-20 16:00 34.27530 -77.89558 28 ft 24 kts 229°
2026-04-20 16:00 34.27400 -77.89675 28 ft 24 kts 199°
2026-04-20 16:00 34.27278 -77.89804 30 ft 24 kts 229°
2026-04-20 16:01 34.27159 -77.89968 29 ft 30 kts 228°
2026-04-20 16:01 34.27003 -77.90195 27 ft 40 kts 232°
2026-04-20 16:01 34.26845 -77.90439 28 ft 34 kts 230°
2026-04-20 16:01 34.26709 -77.90632 33 ft 24 kts 229°
2026-04-20 16:02 34.26626 -77.90751 32 ft 10 kts 235°
2026-04-20 16:02 34.26654 -77.90795 34 ft 5 kts 316°
2026-04-20 16:02 34.26662 -77.90831 35 ft 3 kts 284°
2026-04-20 16:02 34.26665 -77.90844 35 ft 0 kts 286°